Location: Newark
(40.2531°N, 0.7525°W)
Time: 07:25:01
(UTC+00:00)

ISS - Visible Passes

Search period start: 25 March 2019 00:00
Search period end: 04 April 2019 00:00
Orbit: 408 x 411 km, 51.6° (Epoch: 25 March)

Date Brightness Start Highest point End Pass type
(mag) Time Alt. Az. Time Alt. Az. Time Alt. Az.
25 Mar -2.0 19:14:42 10° W 19:17:40 30° NNW 19:20:39 10° NE visible
25 Mar -0.6 20:53:34 10° NW 20:54:25 12° NNW 20:54:25 12° NNW visible
26 Mar -1.0 20:02:13 10° NW 20:04:10 15° NNW 20:06:01 10° NNE visible
27 Mar -1.3 19:10:53 10° WNW 19:13:16 18° NNW 19:15:40 10° NNE visible
27 Mar -0.7 20:49:40 10° NNW 20:50:19 11° N 20:50:19 11° N visible
28 Mar -1.0 19:58:36 10° NNW 19:59:56 12° N 20:01:16 10° NNE visible
29 Mar -1.1 19:07:16 10° NW 19:08:58 13° N 19:10:40 10° NNE visible
29 Mar -0.8 20:44:59 10° NNW 20:45:54 12° N 20:45:54 12° N visible
30 Mar -1.1 19:54:21 10° NNW 19:55:42 12° N 19:57:01 10° NNE visible
31 Mar -1.1 19:03:27 10° NNW 19:04:41 12° N 19:05:56 10° NNE visible
31 Mar -1.2 20:39:56 10° NNW 20:41:21 16° N 20:41:21 16° N visible
01 Apr -1.4 19:49:26 10° NNW 19:51:22 14° NNE 19:52:40 12° NE visible
01 Apr -0.2 21:25:21 10° NW 21:25:25 10° NW 21:25:25 10° NW visible
02 Apr -1.2 18:58:51 10° NNW 19:00:22 12° N 19:01:52 10° NE visible
02 Apr -1.8 20:34:47 10° NW 20:36:44 24° N 20:36:44 24° N visible
03 Apr -1.9 19:44:16 10° NNW 19:46:53 21° NNE 19:48:04 18° NE visible
03 Apr -0.4 21:20:27 10° WNW 21:20:50 13° WNW 21:20:50 13° WNW visible
